Date String (YYYY-MM-DD hh:mm:ss) UTC,Instrument flags,absolute air pressure of the measurement (hPa),sample flow rate (lpm),inlet stack bypass flow (lpm),air temperature of the measurement (°C),ambient temperature measured by the external sensor (°C),aerosol sample conditioner tube jacket temperature (°C),OPC LED temperature (°C),internal box temperature (°C),relative humidity of the measurement (%),span deviation,mass concentration of particles derived from Lorenz-Mie calculation of OPC scattering (μg/m³),mass concentration of particles derived from Lorenz-Mie calculation of OPC scattering (μg/m³),mass concentration of particles derived from Lorenz-Mie calculation of OPC scattering (μg/m³)
DateTimeUTC,F1_M11,P_M11,Q1_M11,Q2_M11,T1_M11,T2_M11,T3_M11,T4_M11,T5_M11,U1_M11,ZSPAN_M11,X2_M11,X0_M11,X1_M11
2023-12-02 08:00:00,SystemResetWarning,0819.5,5.01,000.00,018.8,018.0,000.0,027.2,020.0,11.4,0000.0,0003.54,0008.11,0003.35
2023-12-02 08:01:00,SystemResetWarning,0819.5,5.00,000.00,018.8,017.9,000.0,027.2,020.0,11.5,0000.0,0003.57,0008.14,0003.38
2023-12-02 08:02:00,SystemResetWarning,0819.5,4.99,000.00,018.8,017.9,000.0,027.2,020.0,11.4,0000.0,0003.60,0008.23,0003.39
2023-12-02 08:03:00,SystemResetWarning,0819.5,4.99,000.00,018.8,017.9,000.0,027.2,020.0,11.4,0000.0,0003.60,0008.22,0003.39
2023-12-02 08:04:00,SystemResetWarning,0819.5,5.00,000.00,018.8,017.9,000.0,027.2,020.0,11.5,0000.0,0003.63,0008.16,0003.41
2023-12-02 08:05:00,SystemResetWarning,0819.5,5.00,000.00,018.8,017.8,000.0,027.2,020.0,11.5,0000.0,0003.66,0007.54,0003.45
2023-12-02 08:06:00,SystemResetWarning,0819.5,5.00,000.00,018.8,017.8,000.0,027.2,020.0,11.4,0000.0,0003.72,0006.63,0003.51
2023-12-02 08:07:00,SystemResetWarning,0819.6,5.00,000.00,018.8,017.8,000.0,027.2,020.0,11.4,0000.0,0003.80,0006.56,0003.57
2023-12-02 08:08:00,SystemResetWarning,0819.9,5.00,000.00,018.8,017.8,000.0,027.2,020.0,11.4,0000.0,0003.86,0005.68,0003.63
2023-12-02 08:09:00,SystemResetWarning,0819.5,5.00,000.00,018.8,017.8,000.0,027.2,020.0,11.4,0000.0,0003.91,0005.80,0003.68
2023-12-02 08:10:00,SystemResetWarning,0819.5,5.01,000.00,018.7,017.8,000.0,027.2,020.0,11.3,0000.0,0003.95,0005.81,0003.74
2023-12-02 08:11:00,SystemResetWarning,0819.5,5.00,000.00,018.7,017.8,000.0,027.2,020.0,11.0,0000.0,0004.00,0006.45,0003.78
2023-12-02 08:12:00,SystemResetWarning,0819.5,5.00,000.00,018.7,017.7,000.0,027.2,020.0,11.0,0000.0,0004.05,0006.71,0003.83
2023-12-02 08:13:00,SystemResetWarning,0819.5,5.00,000.00,018.7,017.8,000.0,027.2,020.0,11.1,0000.0,0004.06,0006.59,0003.87
2023-12-02 08:14:00,SystemResetWarning,0819.5,5.01,000.00,018.7,017.8,000.0,027.2,020.0,10.8,0000.0,0004.11,0006.69,0003.90
2023-12-02 08:15:00,SystemResetWarning,0819.4,5.00,000.00,018.7,017.8,000.0,027.2,020.0,10.5,0000.0,0004.11,0007.08,0003.92
2023-12-02 08:16:00,SystemResetWarning,0819.4,5.00,000.00,018.8,017.8,000.0,027.2,020.0,10.6,0000.0,0004.14,0007.47,0003.94
2023-12-02 08:17:00,SystemResetWarning,0819.4,5.00,000.00,018.8,017.8,000.0,027.2,020.0,10.6,0000.0,0004.13,0007.46,0003.93
2023-12-02 08:18:00,SystemResetWarning,0819.4,5.00,000.00,018.8,017.8,000.0,027.2,020.0,10.5,0000.0,0004.06,0007.32,0003.85
2023-12-02 08:19:00,SystemResetWarning,0819.3,5.00,000.00,018.7,017.8,000.0,027.2,020.0,10.6,0000.0,0003.98,0007.11,0003.78
2023-12-02 08:20:00,SystemResetWarning,0819.3,5.00,000.00,018.8,017.8,000.0,027.2,020.0,10.6,0000.0,0003.94,0007.01,0003.74
2023-12-02 08:21:00,SystemResetWarning,0819.4,5.00,000.00,018.8,017.8,000.0,027.2,020.0,10.5,0000.0,0003.87,0006.89,0003.66
2023-12-02 08:22:00,SystemResetWarning,0819.4,5.00,000.00,018.8,017.8,000.0,027.2,020.0,10.6,0000.0,0003.75,0006.72,0003.53
2023-12-02 08:23:00,SystemResetWarning,0819.3,5.00,000.00,018.8,017.8,000.0,027.2,020.0,10.7,0000.0,0003.63,0006.65,0003.42
2023-12-02 08:24:00,SystemResetWarning,0819.4,5.00,000.00,018.7,017.8,000.0,027.2,020.0,10.6,0000.0,0003.55,0006.50,0003.34
2023-12-02 08:25:00,SystemResetWarning,0819.4,5.00,000.00,018.7,017.7,000.0,027.2,020.0,10.7,0000.0,0003.41,0006.18,0003.22
2023-12-02 08:26:00,SystemResetWarning,0819.3,5.00,000.00,018.7,017.7,000.0,027.2,020.0,10.7,0000.0,0003.28,0005.61,0003.09
2023-12-02 08:27:00,SystemResetWarning,0819.3,5.00,000.00,018.7,017.7,000.0,027.2,020.0,10.4,0000.0,0003.16,0004.80,0002.89
2023-12-02 08:28:00,SystemResetWarning,0819.3,5.00,000.00,018.7,017.7,000.0,027.2,020.0,10.3,0000.0,0003.00,0004.60,0002.68
2023-12-02 08:29:00,SystemResetWarning,0819.3,5.00,000.00,018.7,017.7,000.0,027.2,020.0,10.6,0000.0,0002.87,0004.47,0002.56
2023-12-02 08:30:00,SystemResetWarning,0819.3,4.99,000.00,018.7,017.7,000.0,027.2,020.0,11.1,0000.0,0002.74,0004.34,0002.46
2023-12-02 08:31:00,SystemResetWarning,0819.4,5.01,000.00,018.7,017.7,000.0,027.2,020.0,11.3,0000.0,0002.57,0004.16,0002.29
2023-12-02 08:32:00,SystemResetWarning,0819.3,5.00,000.00,018.7,017.7,000.0,027.2,020.0,11.3,0000.0,0002.44,0003.99,0002.20
2023-12-02 08:33:00,SystemResetWarning,0819.3,5.00,000.00,018.7,017.7,000.0,027.2,020.0,11.3,0000.0,0002.41,0003.60,0002.19
2023-12-02 08:34:00,SystemResetWarning,0819.3,5.00,000.00,018.7,017.7,000.0,027.2,020.0,11.3,0000.0,0002.34,0002.94,0002.14
2023-12-02 08:35:00,SystemResetWarning,0819.3,5.00,000.00,018.7,017.6,000.0,027.2,020.0,11.2,0000.0,0002.26,0002.92,0002.07
2023-12-02 08:36:00,SystemResetWarning,0819.3,5.01,000.00,018.7,017.6,000.0,027.2,020.0,11.3,0000.0,0002.30,0002.99,0002.10
2023-12-02 08:37:00,SystemResetWarning,0819.3,5.00,000.00,018.7,017.6,000.0,027.2,020.0,11.2,0000.0,0002.41,0003.12,0002.21
2023-12-02 08:38:00,SystemResetWarning,0819.3,5.00,000.00,018.7,017.6,000.0,027.2,020.0,11.2,0000.0,0002.59,0003.57,0002.37
2023-12-02 08:39:00,SystemResetWarning,0819.3,5.01,000.00,018.7,017.6,000.0,027.2,020.0,11.2,0000.0,0002.78,0004.01,0002.55
2023-12-02 08:40:00,SystemResetWarning,0819.3,5.00,000.00,018.7,017.6,000.0,027.2,020.0,11.2,0000.0,0002.98,0004.55,0002.74
2023-12-02 08:41:00,SystemResetWarning,0819.3,5.00,000.00,018.7,017.6,000.0,027.2,020.0,11.2,0000.0,0003.15,0006.31,0002.92
2023-12-02 08:42:00,SystemResetWarning,0819.3,5.00,000.00,018.7,017.5,000.0,027.2,020.0,11.1,0000.0,0003.27,0007.30,0003.10
2023-12-02 08:43:00,SystemResetWarning,0819.3,5.00,000.00,018.7,017.5,000.0,027.2,020.0,11.0,0000.0,0003.38,0007.47,0003.19
2023-12-02 08:44:00,SystemResetWarning,0819.3,5.00,000.00,018.7,017.5,000.0,027.2,020.0,11.0,0000.0,0003.46,0007.55,0003.27
2023-12-02 08:45:00,SystemResetWarning,0819.3,5.00,000.00,018.7,017.5,000.0,027.2,020.0,11.1,0000.0,0003.56,0007.61,0003.37
2023-12-02 08:46:00,SystemResetWarning,0819.3,5.00,000.00,018.7,017.6,000.0,027.2,020.0,12.2,0000.0,0003.66,0007.72,0003.48
2023-12-02 08:47:00,SystemResetWarning,0819.3,5.00,000.00,018.7,017.6,000.0,027.2,020.0,13.9,0000.0,0003.76,0007.91,0003.55
2023-12-02 08:48:00,SystemResetWarning,0819.3,5.00,000.00,018.7,017.6,000.0,027.2,020.0,14.5,0000.0,0003.82,0008.00,0003.59
2023-12-02 08:49:00,SystemResetWarning,0819.3,5.00,000.00,018.7,017.6,000.0,027.2,020.0,14.7,0000.0,0003.82,0008.11,0003.60
2023-12-02 08:50:00,SystemResetWarning,0819.4,5.00,000.00,018.7,017.6,000.0,027.2,020.0,14.8,0000.0,0003.79,0008.10,0003.59
2023-12-02 08:51:00,SystemResetWarning,0819.4,4.99,000.00,018.7,017.7,000.0,027.2,020.0,14.8,0000.0,0003.77,0007.94,0003.57
2023-12-02 08:52:00,SystemResetWarning,0819.4,5.00,000.00,018.7,017.7,000.0,027.2,020.0,14.6,0000.0,0003.73,0007.32,0003.54
2023-12-02 08:53:00,SystemResetWarning,0819.5,5.00,000.00,018.7,017.7,000.0,027.2,020.0,13.9,0000.0,0003.86,0006.41,0003.67
2023-12-02 08:54:00,SystemResetWarning,0819.5,5.00,000.00,018.7,017.7,000.0,027.2,020.0,14.0,0000.0,0004.61,0007.58,0004.40
2023-12-02 08:55:00,SystemResetWarning,0819.5,4.99,000.00,018.7,017.7,000.0,027.2,020.0,14.4,0000.0,0005.69,0008.84,0005.42
2023-12-02 08:56:00,SystemResetWarning,0819.5,5.00,000.00,018.7,017.7,000.0,027.2,020.0,14.8,0000.0,0006.83,0010.37,0006.49
2023-12-02 08:57:00,SystemResetWarning,0819.5,5.00,000.00,018.7,017.7,000.0,027.2,020.0,14.8,0000.7,0007.91,0011.77,0007.49
2023-12-02 08:58:00,SystemResetWarning,0819.5,5.00,000.00,018.7,017.7,000.0,027.2,020.0,14.7,0002.5,0009.02,0013.91,0008.55
2023-12-02 08:59:00,SystemResetWarning,0819.5,5.00,000.00,018.7,017.6,000.0,027.2,020.0,14.9,0002.5,0010.00,0015.41,0009.51
